| time (UTC) | temp F | wind direction | speed MPH | gust MPH | rain 1hr in | rain 24hr in | rain mn in | humidity % | barometer mb |
| 20260503185408 | 62 | 84 | 3.0 | 5.0 | 0.00 | 0.00 | 0.00 | 67 | 1010.0 |
| 20260503184907 | 62 | 99 | 2.0 | 4.0 | 0.00 | 0.00 | 0.00 | 68 | 1010.0 |
| 20260503184408 | 61 | 100 | 2.0 | 4.0 | 0.00 | 0.00 | 0.00 | 71 | 1010.0 |
| 20260503183907 | 60 | 94 | 1.0 | 4.0 | 0.00 | 0.00 | 0.00 | 71 | 1010.0 |
| 20260503183409 | 59 | 107 | 1.0 | 5.0 | 0.00 | 0.00 | 0.00 | 74 | 1010.0 |
| 20260503182908 | 59 | 103 | 3.0 | 5.0 | 0.00 | 0.00 | 0.00 | 73 | 1010.0 |
| 20260503182407 | 59 | 106 | 3.0 | 6.0 | 0.00 | 0.00 | 0.00 | 74 | 1010.0 |
| 20260503181908 | 59 | 97 | 4.0 | 7.0 | 0.00 | 0.00 | 0.00 | 76 | 1010.0 |
| 20260503181408 | 58 | 69 | 4.0 | 7.0 | 0.00 | 0.00 | 0.00 | 78 | 1010.0 |
| 20260503180907 | 58 | 68 | 5.0 | 9.0 | 0.00 | 0.00 | 0.00 | 77 | 1010.0 |
| 20260503180407 | 58 | 160 | 2.0 | 8.0 | 0.00 | 0.00 | 0.00 | 78 | 1010.0 |
| 20260503175909 | 58 | 73 | 3.0 | 6.0 | 0.00 | 0.00 | 0.00 | 79 | 1010.0 |
| 20260503175408 | 58 | 125 | 3.0 | 7.0 | 0.00 | 0.00 | 0.00 | 79 | 1010.0 |
| 20260503174908 | 59 | 129 | 4.0 | 7.0 | 0.00 | 0.00 | 0.00 | 77 | 1010.0 |
| 20260503174407 | 59 | 107 | 3.0 | 7.0 | 0.00 | 0.00 | 0.00 | 78 | 1010.0 |
| 20260503173907 | 59 | 114 | 3.0 | 6.0 | 0.00 | 0.00 | 0.00 | 79 | 1010.0 |
| 20260503173407 | 59 | 136 | 5.0 | 8.0 | 0.00 | 0.00 | 0.00 | 76 | 1010.0 |
| 20260503172908 | 59 | 121 | 5.0 | 5.0 | 0.00 | 0.00 | 0.00 | 76 | 1010.0 |
| 20260503172407 | 59 | 112 | 2.0 | 5.0 | 0.00 | 0.00 | 0.00 | 77 | 1010.0 |
| 20260503171907 | 59 | 94 | 3.0 | 6.0 | 0.00 | 0.00 | 0.00 | 77 | 1010.0 |
| 20260503171408 | 59 | 82 | 2.0 | 7.0 | 0.00 | 0.00 | 0.00 | 75 | 1010.0 |
| 20260503170908 | 59 | 107 | 3.0 | 5.0 | 0.00 | 0.00 | 0.00 | 75 | 1010.0 |
| 20260503170408 | 60 | 100 | 2.0 | 6.0 | 0.00 | 0.00 | 0.00 | 76 | 1010.0 |
| 20260503150910 | 56 | 108 | 3.0 | 4.0 | 0.00 | 0.00 | 0.00 | 82 | 1009.0 |
| 20260503150408 | 56 | 128 | 2.0 | 4.0 | 0.00 | 0.00 | 0.00 | 82 | 1009.0 |
| 20260503131407 | 55 | 86 | 2.0 | 4.0 | 0.00 | 0.00 | 0.00 | 80 | 1008.0 |
| 20260503130907 | 55 | 110 | 1.0 | 5.0 | 0.00 | 0.00 | 0.00 | 80 | 1008.0 |
| 20260503130409 | 55 | 106 | 2.0 | 4.0 | 0.00 | 0.00 | 0.00 | 80 | 1008.0 |
| 20260503110407 | 55 | 122 | 5.0 | 5.0 | 0.00 | 0.00 | 0.00 | 81 | 1008.0 |
| 20260503090408 | 55 | 107 | 2.0 | 6.0 | 0.00 | 0.00 | 0.00 | 82 | 1008.0 |
| 20260503081408 | 55 | 107 | 3.0 | 5.0 | 0.00 | 0.00 | 0.00 | 82 | 1008.0 |
| 20260503080907 | 55 | 83 | 2.0 | 3.0 | 0.00 | 0.00 | 0.00 | 81 | 1008.0 |
| 20260503080407 | 55 | 145 | 1.0 | 3.0 | 0.00 | 0.00 | 0.00 | 81 | 1009.0 |
| 20260503072909 | 55 | 99 | 3.0 | 5.0 | 0.00 | 0.00 | 0.00 | 81 | 1008.0 |
| 20260503072407 | 55 | 76 | 2.0 | 5.0 | 0.00 | 0.00 | 0.00 | 81 | 1008.0 |
| 20260503071907 | 55 | 136 | 2.0 | 3.0 | 0.00 | 0.00 | 0.00 | 81 | 1009.0 |
| 20260503071408 | 55 | 78 | 2.0 | 3.0 | 0.00 | 0.00 | 0.00 | 81 | 1008.0 |
| 20260503070907 | 55 | 92 | 3.0 | 4.0 | 0.00 | 0.00 | 0.00 | 82 | 1009.0 |
| 20260503070407 | 55 | 81 | 1.0 | 3.0 | 0.00 | 0.00 | 0.00 | 82 | 1009.0 |
| 20260503054909 | 56 | 102 | 2.0 | 3.0 | 0.00 | 0.00 | 0.00 | 82 | 1009.0 |
| 20260503054407 | 56 | 117 | 2.0 | 3.0 | 0.00 | 0.00 | 0.00 | 82 | 1009.0 |
| 20260503053907 | 56 | 113 | 2.0 | 3.0 | 0.00 | 0.00 | 0.00 | 82 | 1009.0 |
| 20260503053409 | 56 | 94 | 2.0 | 4.0 | 0.00 | 0.00 | 0.00 | 82 | 1009.0 |
| 20260503052907 | 56 | 73 | 1.0 | 3.0 | 0.00 | 0.00 | 0.00 | 82 | 1009.0 |
| 20260503052408 | 56 | 127 | 2.0 | 3.0 | 0.00 | 0.00 | 0.00 | 82 | 1009.0 |
| 20260503051908 | 56 | 67 | 1.0 | 4.0 | 0.00 | 0.00 | 0.00 | 81 | 1009.0 |
| 20260503051412 | 56 | 134 | 3.0 | 3.0 | 0.00 | 0.00 | 0.00 | 82 | 1009.0 |
| 20260503050907 | 56 | 43 | 0.0 | 4.0 | 0.00 | 0.00 | 0.00 | 82 | 1009.0 |
| 20260503050408 | 56 | 130 | 2.0 | 3.0 | 0.00 | 0.00 | 0.00 | 82 | 1009.0 |
| 20260503045907 | 56 | 111 | 3.0 | 5.0 | 0.00 | 0.00 | 0.00 | 82 | 1009.0 |
| 20260503045408 | 56 | 106 | 2.0 | 3.0 | 0.00 | 0.00 | 0.00 | 81 | 1009.0 |
| 20260503044907 | 56 | 124 | 1.0 | 3.0 | 0.00 | 0.00 | 0.00 | 80 | 1009.0 |
| 20260503044407 | 56 | 114 | 0.0 | 3.0 | 0.00 | 0.00 | 0.00 | 80 | 1009.0 |
| 20260503043908 | 56 | 101 | 3.0 | 4.0 | 0.00 | 0.00 | 0.00 | 80 | 1009.0 |
| 20260503043409 | 56 | 108 | 2.0 | 3.0 | 0.00 | 0.00 | 0.00 | 80 | 1009.0 |
| 20260503042910 | 56 | 89 | 2.0 | 4.0 | 0.00 | 0.00 | 0.00 | 80 | 1009.0 |
| 20260503042407 | 56 | 107 | 2.0 | 5.0 | 0.00 | 0.00 | 0.00 | 80 | 1009.0 |
| 20260503041908 | 56 | 106 | 3.0 | 5.0 | 0.00 | 0.00 | 0.00 | 80 | 1009.0 |
| 20260503041407 | 56 | 57 | 3.0 | 5.0 | 0.00 | 0.00 | 0.00 | 81 | 1009.0 |
| 20260503040907 | 56 | 91 | 4.0 | 5.0 | 0.00 | 0.00 | 0.00 | 81 | 1009.0 |
| 20260503040408 | 56 | 150 | 1.0 | 3.0 | 0.00 | 0.00 | 0.00 | 81 | 1009.0 |
| 20260503035908 | 56 | 138 | 2.0 | 4.0 | 0.00 | 0.00 | 0.00 | 81 | 1009.0 |
| 20260503035407 | 56 | 107 | 1.0 | 3.0 | 0.00 | 0.00 | 0.00 | 81 | 1009.0 |
| 20260503034908 | 56 | 74 | 2.0 | 3.0 | 0.00 | 0.00 | 0.00 | 82 | 1009.0 |
| 20260503034407 | 56 | 96 | 2.0 | 5.0 | 0.00 | 0.00 | 0.00 | 82 | 1009.0 |
| 20260503033908 | 56 | 99 | 2.0 | 3.0 | 0.00 | 0.00 | 0.00 | 82 | 1009.0 |
| 20260503033408 | 56 | 114 | 2.0 | 4.0 | 0.00 | 0.00 | 0.00 | 82 | 1008.0 |
| 20260503032907 | 56 | 82 | 1.0 | 5.0 | 0.00 | 0.00 | 0.00 | 82 | 1008.0 |
| 20260503032407 | 56 | 140 | 3.0 | 5.0 | 0.00 | 0.00 | 0.00 | 82 | 1008.0 |
| 20260503031909 | 56 | 85 | 1.0 | 4.0 | 0.00 | 0.00 | 0.00 | 82 | 1008.0 |
| 20260503031409 | 56 | 164 | 1.0 | 4.0 | 0.00 | 0.00 | 0.00 | 82 | 1008.0 |
| 20260503030907 | 56 | 130 | 2.0 | 6.0 | 0.00 | 0.00 | 0.00 | 82 | 1008.0 |
| 20260503030409 | 56 | 84 | 2.0 | 5.0 | 0.00 | 0.00 | 0.00 | 82 | 1008.0 |
| 20260503025907 | 56 | 104 | 3.0 | 5.0 | 0.00 | 0.00 | 0.00 | 82 | 1008.0 |
| 20260503025407 | 56 | 121 | 4.0 | 5.0 | 0.00 | 0.00 | 0.00 | 82 | 1008.0 |
| 20260503024907 | 56 | 167 | 2.0 | 3.0 | 0.00 | 0.00 | 0.00 | 82 | 1008.0 |
| 20260503024407 | 56 | 131 | 3.0 | 5.0 | 0.00 | 0.00 | 0.00 | 82 | 1008.0 |
| 20260503023908 | 56 | 122 | 5.0 | 6.0 | 0.00 | 0.00 | 0.00 | 81 | 1008.0 |
| 20260503023407 | 56 | 119 | 2.0 | 5.0 | 0.00 | 0.00 | 0.00 | 81 | 1008.0 |
| 20260503022907 | 56 | 76 | 3.0 | 4.0 | 0.00 | 0.00 | 0.00 | 80 | 1008.0 |
| 20260503022407 | 57 | 113 | 3.0 | 6.0 | 0.00 | 0.00 | 0.00 | 80 | 1008.0 |
| 20260503021907 | 57 | 125 | 3.0 | 5.0 | 0.00 | 0.00 | 0.00 | 80 | 1008.0 |
| 20260503021407 | 57 | 133 | 4.0 | 5.0 | 0.00 | 0.00 | 0.00 | 80 | 1008.0 |
| 20260503020909 | 57 | 126 | 3.0 | 6.0 | 0.00 | 0.00 | 0.00 | 81 | 1008.0 |
| 20260503020407 | 57 | 124 | 3.0 | 7.0 | 0.00 | 0.00 | 0.00 | 80 | 1008.0 |
| 20260503015909 | 57 | 144 | 2.0 | 6.0 | 0.00 | 0.00 | 0.00 | 80 | 1008.0 |
| 20260503015407 | 57 | 101 | 2.0 | 7.0 | 0.00 | 0.00 | 0.00 | 79 | 1008.0 |
| 20260503014907 | 57 | 150 | 2.0 | 5.0 | 0.00 | 0.00 | 0.00 | 79 | 1008.0 |
| 20260503014408 | 57 | 126 | 5.0 | 8.0 | 0.00 | 0.00 | 0.00 | 79 | 1008.0 |
| 20260503013907 | 57 | 56 | 2.0 | 7.0 | 0.00 | 0.00 | 0.00 | 79 | 1008.0 |
| 20260503013407 | 58 | 131 | 3.0 | 6.0 | 0.00 | 0.00 | 0.00 | 78 | 1008.0 |
| 20260503012907 | 58 | 119 | 3.0 | 5.0 | 0.00 | 0.00 | 0.00 | 78 | 1008.0 |
| 20260503012410 | 58 | 142 | 3.0 | 3.0 | 0.00 | 0.00 | 0.00 | 78 | 1008.0 |
| 20260503011907 | 58 | 98 | 3.0 | 5.0 | 0.00 | 0.00 | 0.00 | 78 | 1008.0 |
| 20260503011407 | 58 | 82 | 3.0 | 7.0 | 0.00 | 0.00 | 0.00 | 77 | 1008.0 |
| 20260503010907 | 58 | 95 | 2.0 | 9.0 | 0.00 | 0.00 | 0.00 | 76 | 1008.0 |
| 20260503010407 | 58 | 112 | 3.0 | 6.0 | 0.00 | 0.00 | 0.00 | 76 | 1008.0 |
| 20260503005909 | 58 | 102 | 4.0 | 5.0 | 0.00 | 0.00 | 0.00 | 75 | 1009.0 |
| 20260503005407 | 59 | 106 | 3.0 | 6.0 | 0.00 | 0.00 | 0.00 | 75 | 1008.0 |
| 20260503004907 | 59 | 104 | 1.0 | 9.0 | 0.00 | 0.00 | 0.00 | 75 | 1008.0 |
| 20260503004407 | 59 | 124 | 4.0 | 10.0 | 0.00 | 0.00 | 0.00 | 74 | 1008.0 |
| 20260503003907 | 60 | 89 | 5.0 | 7.0 | 0.00 | 0.00 | 0.00 | 73 | 1008.0 |
| 20260503003408 | 60 | 120 | 5.0 | 7.0 | 0.00 | 0.00 | 0.00 | 73 | 1008.0 |
| 20260503002907 | 60 | 91 | 4.0 | 5.0 | 0.00 | 0.00 | 0.00 | 73 | 1008.0 |
| 20260503002407 | 60 | 106 | 3.0 | 6.0 | 0.00 | 0.00 | 0.00 | 73 | 1008.0 |
| 20260503001907 | 60 | 100 | 4.0 | 8.0 | 0.00 | 0.00 | 0.00 | 73 | 1009.0 |
| 20260503001407 | 60 | 103 | 5.0 | 7.0 | 0.00 | 0.00 | 0.00 | 72 | 1009.0 |
| 20260503000908 | 60 | 96 | 5.0 | 7.0 | 0.00 | 0.00 | 0.00 | 73 | 1009.0 |
| 20260503000411 | 60 | 101 | 5.0 | 6.0 | 0.00 | 0.00 | 0.00 | 72 | 1009.0 |
| 20260502235908 | 61 | 105 | 5.0 | 6.0 | 0.00 | 0.00 | 0.00 | 72 | 1009.0 |
| 20260502235408 | 61 | 93 | 2.0 | 7.0 | 0.00 | 0.00 | 0.00 | 70 | 1009.0 |
| 20260502234908 | 61 | 68 | 3.0 | 7.0 | 0.00 | 0.00 | 0.00 | 72 | 1009.0 |
| 20260502234407 | 60 | 91 | 3.0 | 7.0 | 0.00 | 0.00 | 0.00 | 72 | 1009.0 |
| 20260502233907 | 61 | 102 | 3.0 | 7.0 | 0.00 | 0.00 | 0.00 | 73 | 1009.0 |
| 20260502233407 | 61 | 113 | 5.0 | 7.0 | 0.00 | 0.00 | 0.00 | 72 | 1009.0 |
| 20260502232907 | 61 | 98 | 5.0 | 7.0 | 0.00 | 0.00 | 0.00 | 73 | 1009.0 |
| 20260502232408 | 61 | 98 | 6.0 | 8.0 | 0.00 | 0.00 | 0.00 | 73 | 1009.0 |
| 20260502231907 | 60 | 86 | 3.0 | 10.0 | 0.00 | 0.00 | 0.00 | 74 | 1009.0 |
| 20260502231407 | 60 | 63 | 8.0 | 8.0 | 0.00 | 0.00 | 0.00 | 74 | 1009.0 |
| 20260502230907 | 60 | 83 | 6.0 | 10.0 | 0.00 | 0.00 | 0.00 | 75 | 1009.0 |
| 20260502230407 | 60 | 103 | 6.0 | 9.0 | 0.00 | 0.00 | 0.00 | 74 | 1009.0 |
| 20260502225907 | 60 | 84 | 5.0 | 9.0 | 0.00 | 0.00 | 0.00 | 74 | 1009.0 |
| 20260502225407 | 60 | 86 | 5.0 | 8.0 | 0.00 | 0.00 | 0.00 | 74 | 1009.0 |
| 20260502224908 | 60 | 115 | 5.0 | 7.0 | 0.00 | 0.00 | 0.00 | 74 | 1010.0 |
| 20260502224409 | 60 | 92 | 2.0 | 9.0 | 0.00 | 0.00 | 0.00 | 73 | 1009.0 |
| 20260502223907 | 60 | 120 | 5.0 | 8.0 | 0.00 | 0.00 | 0.00 | 73 | 1010.0 |
| 20260502223407 | 60 | 94 | 4.0 | 8.0 | 0.00 | 0.00 | 0.00 | 74 | 1010.0 |
| 20260502222907 | 60 | 108 | 5.0 | 9.0 | 0.00 | 0.00 | 0.00 | 73 | 1010.0 |
| 20260502222407 | 61 | 82 | 5.0 | 9.0 | 0.00 | 0.00 | 0.00 | 72 | 1010.0 |
| 20260502221908 | 61 | 101 | 3.0 | 5.0 | 0.00 | 0.00 | 0.00 | 73 | 1010.0 |
| 20260502221407 | 60 | 108 | 4.0 | 11.0 | 0.00 | 0.00 | 0.00 | 74 | 1010.0 |
| 20260502220907 | 61 | 87 | 4.0 | 8.0 | 0.00 | 0.00 | 0.00 | 72 | 1010.0 |
| 20260502220408 | 60 | 93 | 3.0 | 5.0 | 0.00 | 0.00 | 0.00 | 74 | 1010.0 |
| 20260502215907 | 60 | 110 | 3.0 | 11.0 | 0.00 | 0.00 | 0.00 | 73 | 1010.0 |
| 20260502215407 | 60 | 69 | 9.0 | 12.0 | 0.00 | 0.00 | 0.00 | 74 | 1010.0 |
| 20260502214907 | 60 | 100 | 8.0 | 9.0 | 0.00 | 0.00 | 0.00 | 73 | 1010.0 |
| 20260502214407 | 60 | 110 | 3.0 | 5.0 | 0.00 | 0.00 | 0.00 | 74 | 1010.0 |
| 20260502213907 | 60 | 91 | 2.0 | 8.0 | 0.00 | 0.00 | 0.00 | 74 | 1010.0 |
| 20260502213407 | 60 | 100 | 4.0 | 7.0 | 0.00 | 0.00 | 0.00 | 73 | 1010.0 |
| 20260502212907 | 60 | 110 | 7.0 | 15.0 | 0.00 | 0.00 | 0.00 | 73 | 1010.0 |
| 20260502212407 | 60 | 72 | 4.0 | 7.0 | 0.00 | 0.00 | 0.00 | 71 | 1010.0 |
| 20260502211907 | 61 | 108 | 8.0 | 9.0 | 0.00 | 0.00 | 0.00 | 71 | 1010.0 |
| 20260502211408 | 60 | 104 | 3.0 | 9.0 | 0.00 | 0.00 | 0.00 | 72 | 1010.0 |
| 20260502210907 | 61 | 98 | 6.0 | 10.0 | 0.00 | 0.00 | 0.00 | 70 | 1010.0 |
| 20260502210407 | 60 | 92 | 3.0 | 7.0 | 0.00 | 0.00 | 0.00 | 75 | 1010.0 |
| 20260502205907 | 59 | 97 | 5.0 | 8.0 | 0.00 | 0.00 | 0.00 | 75 | 1010.0 |
| 20260502205408 | 60 | 98 | 6.0 | 9.0 | 0.00 | 0.00 | 0.00 | 73 | 1011.0 |
| 20260502204907 | 60 | 96 | 2.0 | 7.0 | 0.00 | 0.00 | 0.00 | 73 | 1011.0 |
| 20260502204408 | 61 | 97 | 3.0 | 8.0 | 0.00 | 0.00 | 0.00 | 73 | 1011.0 |
| 20260502203907 | 60 | 95 | 6.0 | 8.0 | 0.00 | 0.00 | 0.00 | 74 | 1011.0 |
| 20260502203407 | 60 | 89 | 7.0 | 7.0 | 0.00 | 0.00 | 0.00 | 74 | 1011.0 |
| 20260502202907 | 60 | 89 | 4.0 | 7.0 | 0.00 | 0.00 | 0.00 | 74 | 1011.0 |
| 20260502202408 | 60 | 123 | 3.0 | 6.0 | 0.00 | 0.00 | 0.00 | 75 | 1011.0 |
| 20260502201907 | 60 | 114 | 3.0 | 7.0 | 0.00 | 0.00 | 0.00 | 76 | 1011.0 |
| 20260502201408 | 59 | 100 | 3.0 | 6.0 | 0.00 | 0.00 | 0.00 | 77 | 1011.0 |
| 20260502200908 | 59 | 121 | 8.0 | 9.0 | 0.00 | 0.00 | 0.00 | 77 | 1011.0 |
| 20260502200408 | 59 | 116 | 2.0 | 7.0 | 0.00 | 0.00 | 0.00 | 79 | 1011.0 |
| 20260502195907 | 58 | 74 | 5.0 | 9.0 | 0.00 | 0.00 | 0.00 | 78 | 1011.0 |
| 20260502195407 | 58 | 139 | 5.0 | 6.0 | 0.00 | 0.00 | 0.00 | 79 | 1011.0 |
| 20260502194907 | 58 | 85 | 4.0 | 7.0 | 0.00 | 0.00 | 0.00 | 79 | 1011.0 |
| 20260502194407 | 58 | 91 | 3.0 | 6.0 | 0.00 | 0.00 | 0.00 | 80 | 1011.0 |
| 20260502193907 | 58 | 105 | 5.0 | 6.0 | 0.00 | 0.00 | 0.00 | 80 | 1011.0 |
| 20260502193409 | 58 | 109 | 4.0 | 7.0 | 0.00 | 0.00 | 0.00 | 80 | 1011.0 |
| 20260502192907 | 58 | 121 | 5.0 | 7.0 | 0.00 | 0.00 | 0.00 | 80 | 1011.0 |
| 20260502192408 | 57 | 97 | 3.0 | 7.0 | 0.00 | 0.00 | 0.00 | 81 | 1011.0 |
| 20260502191908 | 57 | 143 | 4.0 | 6.0 | 0.00 | 0.00 | 0.00 | 81 | 1011.0 |
| 20260502191407 | 57 | 101 | 4.0 | 7.0 | 0.00 | 0.00 | 0.00 | 80 | 1011.0 |
| 20260502190907 | 57 | 114 | 4.0 | 6.0 | 0.00 | 0.00 | 0.00 | 80 | 1011.0 |
| 20260502190407 | 57 | 95 | 5.0 | 7.0 | 0.00 | 0.00 | 0.00 | 80 | 1011.0 |
| 20260502185907 | 57 | 94 | 5.0 | 6.0 | 0.00 | 0.00 | 0.00 | 82 | 1011.0 |